Вернуться в каталог

FENGYUN 1C DEB

АктивенPO
NORAD 31779·DEBRIS·🇨🇳 China

Запущен May 10, 1999 с Taiyuan Satellite Launch Center

Loading…

Ближайшие Пролёты (ближайшие 24 часа)

TLE

СвежийSource: Space-Track

Эпоха: Sep 14, 2026, 13:56 UTC

1 31779U 99025CGE 26257.58101244  .00000847  00000-0  20955-3 0  9992
2 31779  99.3151 207.5133 0212408  93.5410 269.0095 14.42344532  9313

Отслеживайте FENGYUN 1C DEB в реальном времени с AllMySat

Download on the App Store